TimeEST,TemperatureF,Dew PointF,Humidity,Sea Level PressureIn,VisibilityMPH,Wind Direction,Wind SpeedMPH,Gust SpeedMPH,PrecipitationIn,Events,Conditions,WindDirDegrees,DateUTC
12:13 AM,12.9,7.0,77,29.95,8.0,North,6.9,-,0.00,,Overcast,350,2014-02-24 05:13:00
12:53 AM,12.0,6.1,77,30.02,10.0,NW,4.6,-,0.00,,Overcast,310,2014-02-24 05:53:00
1:53 AM,10.9,7.0,84,30.02,10.0,West,5.8,-,N/A,,Overcast,260,2014-02-24 06:53:00
2:53 AM,12.0,8.1,84,30.01,4.0,West,6.9,-,0.00,Snow,Light Snow,260,2014-02-24 07:53:00
2:58 AM,12.0,8.1,84,29.94,2.5,West,8.1,-,0.00,Snow,Light Snow,260,2014-02-24 07:58:00
3:42 AM,12.9,9.0,84,29.94,3.0,WNW,6.9,-,0.00,Snow,Light Snow,300,2014-02-24 08:42:00
3:48 AM,12.2,8.6,85,29.94,1.8,WNW,8.1,-,0.00,Snow,Light Snow,300,2014-02-24 08:48:00
3:49 AM,12.9,9.0,84,30.01,1.8,WNW,8.1,-,0.00,Snow,Light Snow,300,2014-02-24 08:49:00
3:58 AM,12.9,9.0,84,29.94,1.5,WNW,6.9,-,0.00,Snow,Light Snow,300,2014-02-24 08:58:00
4:19 AM,12.9,10.0,88,29.94,1.0,WNW,6.9,-,0.01,Snow,Light Snow,290,2014-02-24 09:19:00
4:23 AM,12.9,10.0,88,29.94,0.5,West,6.9,-,0.01,Fog-Snow,Snow,280,2014-02-24 09:23:00
4:30 AM,12.9,9.0,84,29.94,0.8,WNW,11.5,-,0.01,Snow,Light Snow,300,2014-02-24 09:30:00
4:33 AM,12.9,8.1,81,29.94,1.8,WNW,12.7,-,0.01,Snow,Light Snow,300,2014-02-24 09:33:00
4:35 AM,12.9,8.1,81,29.94,3.0,WNW,13.8,-,0.01,Snow,Light Snow,300,2014-02-24 09:35:00
4:42 AM,12.9,8.1,81,29.95,2.0,NW,12.7,-,0.01,Snow,Light Snow,310,2014-02-24 09:42:00
4:50 AM,12.2,6.8,79,29.95,1.8,NW,15.0,23.0,0.01,Snow,Light Snow,310,2014-02-24 09:50:00
4:53 AM,12.9,7.0,77,30.02,2.5,NW,13.8,23.0,0.01,Snow,Light Snow,310,2014-02-24 09:53:00
5:02 AM,12.0,6.1,77,29.95,3.0,NW,13.8,-,0.00,Snow,Light Snow,320,2014-02-24 10:02:00
5:53 AM,10.9,3.9,73,30.03,9.0,NW,11.5,-,0.00,,Overcast,320,2014-02-24 10:53:00
6:53 AM,10.9,5.0,77,30.04,4.0,NW,10.4,-,0.00,Snow,Light Snow,310,2014-02-24 11:53:00
7:53 AM,10.0,5.0,80,30.06,8.0,WNW,9.2,-,0.00,,Overcast,300,2014-02-24 12:53:00
8:53 AM,10.9,5.0,77,30.07,3.0,NW,9.2,-,0.00,Snow,Light Snow,310,2014-02-24 13:53:00
9:01 AM,10.9,5.0,77,30.00,2.5,WNW,9.2,-,0.00,Snow,Light Snow,290,2014-02-24 14:01:00
9:15 AM,10.9,6.1,81,30.00,3.0,WNW,6.9,-,0.00,,Haze,290,2014-02-24 14:15:00
9:53 AM,12.0,6.1,77,30.08,3.0,West,10.4,-,0.00,,Haze,280,2014-02-24 14:53:00
10:03 AM,12.0,6.1,77,30.01,3.0,WNW,6.9,-,0.01,,Haze,290,2014-02-24 15:03:00
10:14 AM,12.0,6.1,77,30.01,2.5,WNW,10.4,-,0.01,Snow,Light Snow,290,2014-02-24 15:14:00
10:22 AM,12.0,6.1,77,30.01,6.0,WNW,9.2,-,0.01,,Haze,300,2014-02-24 15:22:00
10:40 AM,12.9,3.9,67,30.01,6.0,WNW,11.5,-,0.01,,Haze,300,2014-02-24 15:40:00
10:53 AM,12.9,5.0,71,30.09,5.0,WNW,13.8,-,0.01,,Haze,300,2014-02-24 15:53:00
11:08 AM,12.9,6.1,74,30.02,2.5,WNW,11.5,-,0.00,Snow,Light Snow,290,2014-02-24 16:08:00
11:20 AM,12.9,6.1,74,30.02,2.5,WNW,11.5,-,0.00,Snow,Light Snow,300,2014-02-24 16:20:00
11:35 AM,14.0,6.1,71,30.01,5.0,WNW,8.1,-,0.00,,Haze,290,2014-02-24 16:35:00
11:42 AM,14.0,6.1,71,30.02,7.0,WNW,9.2,-,0.00,,Overcast,290,2014-02-24 16:42:00
11:53 AM,14.0,5.0,67,30.09,7.0,West,12.7,-,0.00,,Overcast,280,2014-02-24 16:53:00
12:53 PM,14.0,6.1,71,30.08,4.0,West,10.4,-,0.00,,Haze,280,2014-02-24 17:53:00
1:13 PM,14.0,7.0,74,30.00,1.8,WNW,10.4,-,0.00,Snow,Light Snow,300,2014-02-24 18:13:00
1:15 PM,14.0,8.1,77,30.00,2.0,NW,12.7,-,0.00,Snow,Light Snow,310,2014-02-24 18:15:00
1:31 PM,15.1,7.0,70,30.01,4.0,WNW,9.2,-,0.00,Snow,Light Snow,290,2014-02-24 18:31:00
1:41 PM,15.1,7.0,70,30.01,1.8,West,8.1,-,0.00,Snow,Light Snow,280,2014-02-24 18:41:00
1:53 PM,14.0,7.0,74,30.09,2.0,NW,11.5,-,0.00,Snow,Light Snow,320,2014-02-24 18:53:00
1:55 PM,14.0,7.0,74,30.01,1.5,NW,12.7,-,0.00,Snow,Light Snow,310,2014-02-24 18:55:00
2:18 PM,15.1,7.0,70,30.01,2.0,West,8.1,-,0.00,Snow,Light Snow,280,2014-02-24 19:18:00
2:26 PM,14.0,7.0,74,30.02,4.0,WNW,9.2,-,0.00,,Haze,300,2014-02-24 19:26:00
2:33 PM,14.0,6.1,71,30.02,1.8,WNW,11.5,-,0.00,Snow,Light Snow,300,2014-02-24 19:33:00
2:37 PM,14.0,7.0,74,30.02,1.0,NW,11.5,-,0.00,Snow,Light Snow,310,2014-02-24 19:37:00
2:48 PM,14.0,8.6,79,30.02,1.8,WNW,10.4,-,0.00,Snow,Light Snow,290,2014-02-24 19:48:00
2:51 PM,15.8,6.8,68,30.02,3.0,WNW,9.2,-,0.00,Snow,Light Snow,300,2014-02-24 19:51:00
2:53 PM,15.1,7.0,70,30.09,4.0,WNW,12.7,-,0.00,Snow,Light Snow,290,2014-02-24 19:53:00
3:03 PM,14.0,7.0,74,30.03,1.8,West,13.8,-,0.00,Snow,Light Snow,280,2014-02-24 20:03:00
3:06 PM,14.0,8.1,77,30.03,0.8,WNW,11.5,-,0.00,Snow,Light Snow,300,2014-02-24 20:06:00
3:17 PM,12.9,10.0,88,30.03,0.2,West,12.7,-,0.01,Fog-Snow,Heavy Snow,280,2014-02-24 20:17:00
3:27 PM,14.0,7.0,74,30.03,1.5,WNW,15.0,-,0.01,Snow,Light Snow,290,2014-02-24 20:27:00
3:29 PM,14.0,7.0,74,30.03,3.0,WNW,15.0,-,0.01,Snow,Light Snow,290,2014-02-24 20:29:00
3:40 PM,14.0,7.0,74,30.03,1.8,WNW,15.0,25.3,0.01,Snow,Light Snow,290,2014-02-24 20:40:00
3:42 PM,14.0,8.1,77,30.03,1.0,WNW,17.3,25.3,0.01,Snow,Light Snow,300,2014-02-24 20:42:00
3:49 PM,14.0,6.8,73,30.03,0.8,NW,12.7,21.9,0.01,Snow,Light Snow,310,2014-02-24 20:49:00
3:51 PM,14.0,6.8,73,30.03,1.0,NW,10.4,-,0.01,Snow,Light Snow,310,2014-02-24 20:51:00
3:53 PM,14.0,8.1,77,30.10,2.0,NW,9.2,-,0.01,Snow,Light Snow,320,2014-02-24 20:53:00
3:56 PM,14.0,8.1,77,30.03,5.0,WNW,9.2,-,0.00,,Haze,290,2014-02-24 20:56:00
4:00 PM,14.0,7.0,74,30.04,1.5,West,16.1,20.7,0.00,Snow,Light Snow,280,2014-02-24 21:00:00
4:03 PM,12.9,8.1,81,30.04,0.8,WNW,13.8,20.7,0.00,Snow,Light Snow,290,2014-02-24 21:03:00
4:14 PM,14.0,7.0,74,30.04,1.2,WNW,10.4,-,0.00,Snow,Light Snow,300,2014-02-24 21:14:00
4:21 PM,12.0,8.1,84,30.04,0.2,NNW,9.2,-,0.00,Fog-Snow,Heavy Snow,330,2014-02-24 21:21:00
4:53 PM,12.0,7.0,80,30.12,0.5,WNW,9.2,-,0.02,Snow,Snow,300,2014-02-24 21:53:00
5:07 PM,12.0,6.1,77,30.06,1.0,NW,9.2,-,0.00,Snow,Light Snow,310,2014-02-24 22:07:00
5:14 PM,12.0,7.0,80,30.06,1.8,NW,9.2,-,0.00,Snow,Light Snow,310,2014-02-24 22:14:00
5:17 PM,12.0,7.0,80,30.06,3.0,NW,8.1,-,0.00,Snow,Light Snow,320,2014-02-24 22:17:00
5:27 PM,12.0,6.1,77,30.07,1.5,NW,10.4,-,0.00,Snow,Light Snow,310,2014-02-24 22:27:00
5:29 PM,10.9,6.1,81,30.07,0.8,WNW,9.2,-,0.00,Snow,Light Snow,300,2014-02-24 22:29:00
5:40 PM,10.9,6.1,81,30.07,1.2,NW,8.1,-,0.00,Snow,Light Snow,320,2014-02-24 22:40:00
5:45 PM,10.9,6.1,81,30.07,0.8,NW,8.1,-,0.00,Snow,Light Snow,310,2014-02-24 22:45:00
5:53 PM,10.9,7.0,84,30.15,0.5,NW,6.9,-,0.00,Fog-Snow,Light Snow,310,2014-02-24 22:53:00
5:57 PM,10.9,7.0,84,30.07,1.0,NW,6.9,-,0.00,Snow,Light Snow,310,2014-02-24 22:57:00
5:59 PM,10.9,6.1,81,30.07,2.0,NW,8.1,-,0.00,Snow,Light Snow,310,2014-02-24 22:59:00
6:06 PM,10.0,5.0,80,30.07,9.0,NW,5.8,-,0.00,,Overcast,310,2014-02-24 23:06:00
6:53 PM,10.0,3.9,76,30.16,10.0,NW,6.9,-,0.00,,Mostly Cloudy,310,2014-02-24 23:53:00
7:53 PM,7.0,1.0,77,30.17,10.0,WNW,5.8,-,N/A,,Overcast,290,2014-02-25 00:53:00
8:53 PM,8.1,1.9,76,30.17,10.0,West,5.8,-,N/A,,Overcast,270,2014-02-25 01:53:00
9:53 PM,9.0,5.0,84,30.17,10.0,West,6.9,-,N/A,,Overcast,260,2014-02-25 02:53:00
10:53 PM,9.0,3.9,80,30.16,10.0,West,4.6,-,N/A,,Overcast,270,2014-02-25 03:53:00
11:53 PM,8.1,3.9,83,30.15,10.0,WNW,4.6,-,N/A,,Overcast,290,2014-02-25 04:53:00